Hourly Data Report for September 02, 2017

All times are specified in Local Standard Time (LST). Add 1 hour to adjust for Daylight Saving Time where and when it is observed.

KUGLUKTUK A
NUNAVUT

67°49'00.000" N
115°08'38.000" W
22.60 m
2300903
71938
YCO

Download Data

Hourly Data (September 2017)
Hourly Data Report for September 2, 2017
Temp Definition
°C
Dew Point Temp Definition
°C
Rel Hum Definition
%
Wind Dir Definition
10's deg

Wind Spd Definition
km/h
Visibility Definition
km
Stn Press Definition
kPa
Hmdx Definition


Wind Chill Definition


Weather Definition


TIME
00:00 Legend Double Dagger 2.5 1.7 94 12 13 24.1 100.75     LegendNANA
01:00 Legend Double Dagger 2.4 1.4 93 11 17 24.1 100.75     LegendNANA
02:00 Legend Double Dagger 1.3 0.6 95 12 13 24.1 100.77     Mainly Clear
03:00 Legend Double Dagger 1.1 0.4 95 11 15 24.1 100.79     LegendNANA
04:00 Legend Double Dagger 1.1 0.2 94 10 15 24.1 100.80     LegendNANA
05:00 Legend Double Dagger 0.4 -0.5 94 10 14 24.1 100.80     Mostly Cloudy
06:00 Legend Double Dagger 1.0 0.1 94 10 9 24.1 100.80     LegendNANA
07:00 Legend Double Dagger 3.1 1.6 90 11 11 24.1 100.79     LegendNANA
08:00 Legend Double Dagger 4.4 1.8 83 11 19 24.1 100.77     Mostly Cloudy
09:00 Legend Double Dagger 5.1 2.1 81 10 18 24.1 100.76     LegendNANA
10:00 Legend Double Dagger 6.4 1.7 72 14 14 24.1 100.73     LegendNANA
11:00 Legend Double Dagger 8.1 2.8 69 7 21 24.1 100.68     Mostly Cloudy
12:00 Legend Double Dagger 8.0 3.0 71 6 27 24.1 100.66     LegendNANA
13:00 Legend Double Dagger 7.2 3.2 76 7 28 24.1 100.63     LegendNANA
14:00 Legend Double Dagger 8.9 3.8 71 7 29 24.1 100.59     Mostly Cloudy
15:00 Legend Double Dagger 8.0 4.3 77 7 27 24.1 100.59     LegendNANA
16:00 Legend Double Dagger 8.1 4.6 79 9 25 24.1 100.57     LegendNANA
17:00 Legend Double Dagger 8.1 4.9 80 9 16 24.1 100.55     Mostly Cloudy
18:00 Legend Double Dagger 8.4 5.7 83 9 11 24.1 100.56     LegendNANA
19:00 Legend Double Dagger 9.3 6.0 80 11 12 24.1 100.56     LegendNANA
20:00 Legend Double Dagger 8.3 5.8 85 27 4 24.1 100.55     Mostly Cloudy
21:00 Legend Double Dagger 7.9 5.7 86 22 3 24.1 100.55     LegendNANA
22:00 Legend Double Dagger 6.6 5.7 94 24 5 24.1 100.54     LegendNANA
23:00 Legend Double Dagger 7.0 6.1 93 36 1 19.3 100.54     Mostly Cloudy

Notes on Data Quality.

Legend

  • E = Estimated
  • M = Missing
  • NA = Not Available
  • ‡ = Partner data that is not subject to review by the National Climate Archives
Date modified: